Location: Lafig�re
(44.4503°N, 4.0357°E)
Time: 04:43:00
(UTC+00:00)

Transit 2A Rocket - Pass Details

Date: 19 June 2021
Orbit: 590 x 913 km, 66.7° (Epoch: 26 July)

Event Time Altitude Azimuth Distance (km) Brightness Sun altitude
Exits shadow 00:39:47 55° 233° (SW) 717 4.5 -21.0°
Maximum altitude 00:40:38 76° 302° (WNW) 618 4.5 -21.0°
Drops below altitude 10° 00:45:04 10° 29° (NNE) 1,985 8.2 -20.8°
Sets 00:47:24 0° 31° (NNE) 2,930 9.4 -20.7°
